EW2607 Weather Reports


Display with metric or nautical units.
time (UTC)temp
F
wind
direction
speed
MPH
gust
MPH
rain 1hr
in
rain 24hr
in
rain mn
in
humidity
%
barometer
mb
20180624033127 65 276 3.0 10.0 0.00 0.00 0.00 76 1010.5
20180624032628 65 251 3.0 10.0 0.00 0.00 0.00 76 1010.5
20180624032127 65 226 4.0 10.0 0.00 0.00 0.00 75 1010.5
20180624031627 66 279 4.0 10.0 0.00 0.00 0.00 74 1010.4
20180624031127 66 248 3.0 11.0 0.00 0.00 0.00 74 1010.3
20180624030628 66 277 3.0 11.0 0.00 0.00 0.00 74 1010.3
20180624030125 67 275 3.0 11.0 0.00 0.00 0.00 73 1010.3
20180624025624 67 274 3.0 9.0 0.00 0.00 0.00 73 1010.2
20180624025122 67 228 3.0 9.0 0.00 0.00 0.00 72 1010.2
20180624024623 68 280 3.0 11.0 0.00 0.00 0.00 71 1010.2
20180624024123 68 293 5.0 11.0 0.00 0.00 0.00 71 1010.0
20180624023623 68 234 5.0 11.0 0.00 0.00 0.00 70 1010.0
20180624023122 69 254 4.0 11.0 0.00 0.00 0.00 69 1010.1
20180624022624 69 242 2.0 11.0 0.00 0.00 0.00 68 1010.1
20180624022124 70 245 2.0 11.0 0.00 0.00 0.00 67 1010.1
20180624021620 71 271 3.0 11.0 0.00 0.00 0.00 66 1010.2
20180624021122 71 270 3.0 11.0 0.00 0.00 0.00 65 1010.1
20180624020622 72 291 2.0 10.0 0.00 0.00 0.00 64 1010.1
20180624020122 72 273 3.0 12.0 0.00 0.00 0.00 63 1010.1
20180624015620 73 220 3.0 12.0 0.00 0.00 0.00 63 1010.0
20180624015119 73 232 3.0 9.0 0.00 0.00 0.00 62 1010.1
20180624014618 73 263 3.0 10.0 0.00 0.00 0.00 62 1010.1
20180624014120 73 229 2.0 10.0 0.00 0.00 0.00 62 1010.1
20180624013617 74 240 3.0 12.0 0.00 0.00 0.00 61 1010.1
20180624013116 74 251 4.0 12.0 0.00 0.00 0.00 61 1010.1
20180624012616 74 281 3.0 11.0 0.00 0.00 0.00 61 1010.0
20180624012116 74 246 4.0 11.0 0.00 0.00 0.00 60 1010.0
20180624011614 74 210 4.0 12.0 0.00 0.00 0.00 60 1010.0
20180624011115 75 238 4.0 12.0 0.00 0.00 0.00 59 1010.0
20180624010615 75 263 4.0 11.0 0.00 0.00 0.00 59 1010.0
20180624010116 76 259 4.0 10.0 0.00 0.00 0.00 58 1009.9
20180624005616 76 237 4.0 11.0 0.00 0.00 0.00 58 1009.9
20180624005115 76 269 4.0 11.0 0.00 0.00 0.00 57 1010.0
20180624004614 76 219 3.0 12.0 0.00 0.00 0.00 57 1010.0
20180624004115 76 265 3.0 12.0 0.00 0.00 0.00 57 1009.9
20180624003614 77 215 4.0 11.0 0.00 0.00 0.00 57 1009.9
20180624003114 77 249 4.0 11.0 0.00 0.00 0.00 56 1010.0
20180624002614 77 292 4.0 11.0 0.00 0.00 0.00 56 1010.1
20180624002115 77 227 4.0 13.0 0.00 0.00 0.00 56 1010.1
20180624001617 77 274 5.0 13.0 0.00 0.00 0.00 56 1010.1
20180624001116 77 317 4.0 11.0 0.00 0.00 0.00 57 1010.2
20180624000615 78 252 4.0 12.0 0.00 0.00 0.00 56 1010.3
20180624000115 77 215 5.0 15.0 0.00 0.00 0.00 57 1010.3
20180623235614 77 204 6.0 15.0 0.00 0.00 0.00 57 1010.4
20180623235114 77 275 7.0 16.0 0.00 0.00 0.00 57 1010.4
20180623234613 77 234 7.0 16.0 0.00 0.00 0.00 56 1010.4
20180623234113 78 230 6.0 14.0 0.00 0.00 0.00 54 1010.4
20180623233612 78 202 5.0 14.0 0.00 0.00 0.00 55 1010.4
20180623233113 78 263 6.0 15.0 0.00 0.00 0.00 55 1010.4
20180623232613 78 217 6.0 15.0 0.00 0.00 0.00 54 1010.5
20180623232113 79 219 6.0 15.0 0.00 0.00 0.00 55 1010.5
20180623231613 79 234 6.0 16.0 0.00 0.00 0.00 54 1010.5
20180623231114 79 229 6.0 16.0 0.00 0.00 0.00 54 1010.5
20180623230612 79 239 5.0 15.0 0.00 0.00 0.00 54 1010.6
20180623230112 79 288 6.0 17.0 0.00 0.00 0.00 55 1010.6
20180623225613 78 246 6.0 17.0 0.00 0.00 0.00 55 1010.7
20180623225114 79 209 6.0 16.0 0.00 0.00 0.00 56 1010.7
20180623224613 79 242 7.0 18.0 0.00 0.00 0.00 55 1010.7
20180623224112 79 227 7.0 18.0 0.00 0.00 0.00 55 1010.7
20180623223612 79 223 6.0 18.0 0.00 0.00 0.00 54 1010.8
20180623223112 79 263 7.0 18.0 0.00 0.00 0.00 55 1010.8
20180623222613 79 237 6.0 17.0 0.00 0.00 0.00 55 1010.8
20180623222113 80 209 5.0 16.0 0.00 0.00 0.00 55 1010.9
20180623221612 79 271 7.0 18.0 0.00 0.00 0.00 56 1010.8
20180623221110 79 275 7.0 18.0 0.00 0.00 0.00 55 1010.9
20180623220610 80 252 5.0 12.0 0.00 0.00 0.00 54 1010.9
20180623220111 80 218 6.0 14.0 0.00 0.00 0.00 55 1011.0
20180623215612 80 258 7.0 14.0 0.00 0.00 0.00 54 1010.9
20180623215110 80 234 5.0 14.0 0.00 0.00 0.00 54 1011.0
20180623214611 80 229 6.0 17.0 0.00 0.00 0.00 55 1011.0
20180623214110 80 238 6.0 17.0 0.00 0.00 0.00 55 1011.0
20180623213610 80 255 5.0 13.0 0.00 0.00 0.00 56 1011.0
20180623213109 79 250 5.0 16.0 0.00 0.00 0.00 57 1011.0
20180623212608 79 247 5.0 16.0 0.00 0.00 0.00 57 1011.0
20180623212109 79 230 6.0 12.0 0.00 0.00 0.00 58 1011.1
20180623211608 78 235 6.0 12.0 0.00 0.00 0.00 57 1011.2
20180623211108 79 229 5.0 11.0 0.00 0.00 0.00 57 1011.2
20180623210609 79 271 5.0 11.0 0.00 0.00 0.00 58 1011.2
20180623210108 78 228 5.0 12.0 0.00 0.00 0.00 59 1011.4
20180623205608 78 220 5.0 13.0 0.00 0.00 0.00 60 1011.4
20180623205110 78 302 6.0 14.0 0.00 0.00 0.00 59 1011.5
20180623204608 78 243 6.0 14.0 0.00 0.00 0.00 60 1011.5
20180623204109 78 169 5.0 13.0 0.00 0.00 0.00 60 1011.4
20180623203606 78 288 6.0 14.0 0.00 0.00 0.00 60 1011.5
20180623203106 78 231 6.0 14.0 0.00 0.00 0.00 61 1011.4
20180623202606 77 232 5.0 12.0 0.00 0.00 0.00 60 1011.5
20180623202107 78 221 4.0 10.0 0.00 0.00 0.00 61 1011.5
20180623201606 77 263 4.0 12.0 0.00 0.00 0.00 62 1011.4
20180623201106 77 244 5.0 13.0 0.00 0.00 0.00 62 1011.5
20180623200605 77 262 6.0 13.0 0.00 0.00 0.00 61 1011.5
20180623200107 77 223 5.0 14.0 0.00 0.00 0.00 62 1011.5
20180623195606 77 226 5.0 14.0 0.00 0.00 0.00 62 1011.5
20180623195107 77 217 5.0 12.0 0.00 0.00 0.00 62 1011.6
20180623194606 77 238 5.0 13.0 0.00 0.00 0.00 64 1011.5
20180623194107 76 263 6.0 13.0 0.00 0.00 0.00 63 1011.5
20180623193606 77 224 5.0 13.0 0.00 0.00 0.00 63 1011.4
20180623193107 77 233 4.0 10.0 0.00 0.00 0.00 63 1011.4
20180623192606 77 276 5.0 11.0 0.00 0.00 0.00 62 1011.2
20180623192107 77 268 6.0 11.0 0.00 0.00 0.00 63 1011.4
20180623191606 78 223 5.0 11.0 0.00 0.00 0.00 61 1011.4
20180623191107 78 195 5.0 10.0 0.00 0.00 0.00 61 1011.4
20180623190606 78 200 4.0 11.0 0.00 0.00 0.00 61 1011.4
20180623190106 78 196 4.0 11.0 0.00 0.00 0.00 62 1011.4
20180623185607 78 213 4.0 10.0 0.00 0.00 0.00 61 1011.4
20180623185104 78 275 3.0 9.0 0.00 0.00 0.00 61 1011.4
20180623184603 78 163 3.0 9.0 0.00 0.00 0.00 60 1011.5
20180623184105 78 221 2.0 9.0 0.00 0.00 0.00 62 1011.4
20180623183605 78 194 3.0 7.0 0.00 0.00 0.00 62 1011.4
20180623183104 77 229 2.0 7.0 0.00 0.00 0.00 63 1011.4
20180623182604 77 176 3.0 9.0 0.00 0.00 0.00 63 1011.5
20180623182104 77 215 3.0 9.0 0.00 0.00 0.00 61 1011.5
20180623181605 78 195 2.0 8.0 0.00 0.00 0.00 60 1011.5
20180623181103 78 226 1.0 8.0 0.00 0.00 0.00 63 1011.5
20180623180604 77 212 1.0 6.0 0.00 0.00 0.00 64 1011.4
20180623180105 77 170 1.0 6.0 0.00 0.00 0.00 63 1011.2
20180623175603 76 149 1.0 6.0 0.00 0.00 0.00 64 1011.2
20180623175102 77 176 2.0 6.0 0.00 0.00 0.00 63 1011.4
20180623174603 76 171 2.0 7.0 0.00 0.00 0.00 64 1011.4
20180623174101 76 184 1.0 7.0 0.00 0.00 0.00 65 1011.4
20180623173600 76 221 1.0 5.0 0.00 0.00 0.00 65 1011.4
20180623173059 76 189 1.0 4.0 0.00 0.00 0.00 65 1011.2
20180623172600 76 214 1.0 5.0 0.00 0.00 0.00 65 1011.0
20180623172101 75 231 1.0 5.0 0.00 0.00 0.00 67 1011.0
20180623171600 75 171 1.0 3.0 0.00 0.00 0.00 67 1011.0
20180623171059 74 254 1.0 5.0 0.00 0.00 0.00 67 1011.0
20180623170600 74 200 1.0 5.0 0.00 0.00 0.00 68 1011.0
20180623170100 74 222 0.0 3.0 0.00 0.00 0.00 69 1011.0
20180623165600 74 130 0.0 3.0 0.00 0.00 0.00 69 1011.0
20180623165100 73 211 0.0 3.0 0.00 0.00 0.00 70 1011.0
20180623164559 73 167 0.0 2.0 0.00 0.00 0.00 71 1011.0
20180623164059 73 146 0.0 2.0 0.00 0.00 0.00 71 1011.1
20180623163600 72 157 0.0 2.0 0.00 0.00 0.00 73 1011.0
20180623163101 72 198 0.0 0.0 0.00 0.00 0.00 72 1011.1
20180623162559 71 135 0.0 0.0 0.00 0.00 0.00 74 1011.0
20180623162100 70 217 0.0 3.0 0.00 0.00 0.00 75 1011.1
20180623161558 70 217 0.0 3.0 0.00 0.00 0.00 76 1011.0
20180623161059 70 202 0.0 2.0 0.00 0.00 0.00 77 1011.0
20180623160557 69 159 0.0 1.0 0.00 0.00 0.00 78 1011.0
20180623160056 69 100 0.0 0.0 0.00 0.00 0.00 79 1010.9
20180623155555 68 167 0.0 0.0 0.00 0.00 0.00 80 1010.9
20180623155055 68 211 0.0 0.0 0.00 0.00 0.00 80 1010.9
20180623154556 68 217 0.0 0.0 0.00 0.00 0.00 82 1010.9
20180623154053 67 232 0.0 0.0 0.00 0.00 0.00 84 1010.8
20180623153553 66 201 0.0 0.0 0.00 0.00 0.00 86 1010.8
20180623153053 65 182 0.0 0.0 0.00 0.00 0.00 87 1010.8
20180623152553 65 169 0.0 0.0 0.00 0.00 0.00 89 1010.7
20180623152054 64 169 0.0 0.0 0.00 0.00 0.00 90 1010.6
20180623151553 64 187 0.0 0.0 0.00 0.00 0.00 91 1010.6
20180623151053 63 176 0.0 0.0 0.00 0.00 0.00 93 1010.6
20180623150553 62 162 0.0 0.0 0.00 0.00 0.00 94 1010.5
20180623150053 62 182 0.0 0.0 0.00 0.00 0.00 95 1010.5
20180623145553 62 215 0.0 0.0 0.00 0.00 0.00 96 1010.5
20180623145054 61 222 0.0 0.0 0.00 0.00 0.00 96 1010.4
20180623144553 61 222 0.0 0.0 0.00 0.00 0.00 97 1010.4
20180623144051 60 222 0.0 0.0 0.00 0.00 0.00 97 1010.3
20180623143552 60 222 0.0 0.0 0.00 0.00 0.00 97 1010.2
20180623143051 60 222 0.0 0.0 0.00 0.00 0.00 97 1010.3
20180623142553 59 222 0.0 0.0 0.00 0.00 0.00 97 1010.3
20180623142053 59 222 0.0 0.0 0.00 0.00 0.00 97 1010.2
20180623141551 59 222 0.0 0.0 0.00 0.00 0.00 96 1010.3
20180623141051 59 222 0.0 0.0 0.00 0.00 0.00 96 1010.2
20180623140553 58 222 0.0 0.0 0.00 0.00 0.00 96 1010.1
20180623140053 58 222 0.0 0.0 0.00 0.00 0.00 96 1010.1
20180623135051 58 222 0.0 0.0 0.00 0.00 0.00 96 1009.9
20180623134551 58 222 0.0 0.0 0.00 0.00 0.00 96 1009.9
20180623134050 58 222 0.0 0.0 0.00 0.00 0.00 96 1009.8
20180623133551 57 222 0.0 0.0 0.00 0.00 0.00 96 1009.7
20180623133049 57 222 0.0 0.0 0.00 0.00 0.00 96 1009.7
20180623132552 57 222 0.0 0.0 0.00 0.00 0.00 95 1009.7
20180623132051 57 222 0.0 0.0 0.00 0.00 0.00 95 1009.7
20180623131549 57 222 0.0 0.0 0.00 0.00 0.00 95 1009.7
20180623131049 57 222 0.0 0.0 0.00 0.00 0.00 95 1009.6
20180623130549 57 222 0.0 0.0 0.00 0.00 0.00 95 1009.5
20180623130049 56 222 0.0 0.0 0.00 0.00 0.00 95 1009.6
20180623125549 56 222 0.0 0.0 0.00 0.00 0.00 95 1009.6
20180623125049 56 222 0.0 0.0 0.00 0.00 0.00 95 1009.6
20180623124548 56 222 0.0 0.0 0.00 0.00 0.00 94 1009.6
20180623124046 56 222 0.0 0.0 0.00 0.00 0.00 94 1009.5
20180623123547 56 222 0.0 0.0 0.00 0.00 0.00 94 1009.6
20180623123048 57 222 0.0 0.0 0.00 0.00 0.00 94 1009.5
20180623122547 57 222 0.0 0.0 0.00 0.00 0.00 94 1009.5
20180623122047 57 222 0.0 0.0 0.00 0.00 0.00 94 1009.5
20180623121546 57 222 0.0 0.0 0.00 0.00 0.00 95 1009.5
20180623121047 57 222 0.0 0.0 0.00 0.00 0.00 94 1009.4
20180623120544 57 222 0.0 0.0 0.00 0.00 0.00 94 1009.5
20180623120046 57 222 0.0 0.0 0.00 0.00 0.00 94 1009.4
20180623115545 57 222 0.0 0.0 0.00 0.00 0.00 94 1009.5
20180623115045 57 222 0.0 0.0 0.00 0.00 0.00 94 1009.4
20180623114547 57 222 0.0 0.0 0.00 0.00 0.00 94 1009.4
20180623114046 57 222 0.0 0.0 0.00 0.00 0.00 93 1009.4
20180623113544 57 222 0.0 0.0 0.00 0.00 0.00 93 1009.4
20180623113043 57 222 0.0 0.0 0.00 0.00 0.00 93 1009.5
20180623112543 58 222 0.0 0.0 0.00 0.00 0.00 93 1009.4
20180623112043 58 222 0.0 0.0 0.00 0.00 0.00 93 1009.4
20180623111543 58 222 0.0 0.0 0.00 0.00 0.00 93 1009.4
20180623111043 58 222 0.0 0.0 0.00 0.00 0.00 93 1009.4
20180623110543 58 222 0.0 0.0 0.00 0.00 0.00 93 1009.4
20180623110041 58 222 0.0 0.0 0.00 0.00 0.00 92 1009.4
20180623105541 58 222 0.0 0.0 0.00 0.00 0.00 92 1009.4
20180623105041 58 222 0.0 0.0 0.00 0.00 0.00 92 1009.4
20180623104541 58 222 0.0 0.0 0.00 0.00 0.00 92 1009.5
20180623104040 58 222 0.0 0.0 0.00 0.00 0.00 91 1009.4
20180623103540 58 222 0.0 0.0 0.00 0.00 0.00 91 1009.4
20180623103040 58 222 0.0 0.0 0.00 0.00 0.00 91 1009.4
20180623102538 59 222 0.0 0.0 0.00 0.00 0.00 91 1009.2
20180623102040 59 222 0.0 0.0 0.00 0.00 0.00 91 1009.4
20180623101539 59 222 0.0 0.0 0.00 0.00 0.00 90 1009.4
20180623101038 59 222 0.0 0.0 0.00 0.00 0.00 90 1009.4
20180623100539 59 222 0.0 0.0 0.00 0.00 0.00 90 1009.5
20180623100036 59 222 0.0 0.0 0.00 0.00 0.00 89 1009.4
20180623095538 59 222 0.0 0.0 0.00 0.00 0.00 89 1009.4
20180623095037 60 222 0.0 0.0 0.00 0.00 0.00 89 1009.4
20180623094538 60 222 0.0 0.0 0.00 0.00 0.00 88 1009.4
20180623094036 60 222 0.0 0.0 0.00 0.00 0.00 87 1009.4
20180623093537 60 222 0.0 0.0 0.00 0.00 0.00 87 1009.5
20180623093037 60 222 0.0 0.0 0.00 0.00 0.00 86 1009.5
20180623092538 60 222 0.0 0.0 0.00 0.00 0.00 85 1009.5
20180623092037 60 222 0.0 0.0 0.00 0.00 0.00 83 1009.5
20180623091538 60 222 0.0 0.0 0.00 0.00 0.00 83 1009.5
20180623091036 60 222 0.0 0.0 0.00 0.00 0.00 82 1009.5
20180623090538 61 222 0.0 0.0 0.00 0.00 0.00 82 1009.5
20180623090036 61 222 0.0 0.0 0.00 0.00 0.00 81 1009.5
20180623085538 60 222 0.0 0.0 0.00 0.00 0.00 80 1009.5
20180623085038 61 222 0.0 0.0 0.00 0.00 0.00 79 1009.5
20180623084538 61 222 0.0 0.0 0.00 0.00 0.00 78 1009.6
20180623084037 61 222 0.0 0.0 0.00 0.00 0.00 78 1009.6
20180623083538 61 222 0.0 0.0 0.00 0.00 0.00 78 1009.6
20180623083036 61 222 0.0 0.0 0.00 0.00 0.00 77 1009.6
20180623082536 61 222 0.0 0.0 0.00 0.00 0.00 77 1009.6
20180623082035 61 222 0.0 0.0 0.00 0.00 0.00 77 1009.6
20180623081532 61 222 0.0 0.0 0.00 0.00 0.00 78 1009.7
20180623081034 61 222 0.0 0.0 0.00 0.00 0.00 78 1009.7
20180623080531 61 222 0.0 0.0 0.00 0.00 0.00 78 1009.7
20180623080032 61 222 0.0 0.0 0.00 0.00 0.00 78 1009.8
20180623075529 61 222 0.0 0.0 0.00 0.00 0.00 81 1009.8
20180623075031 61 222 0.0 0.0 0.00 0.00 0.00 84 1009.8
20180623074528 61 222 0.0 0.0 0.00 0.00 0.00 85 1009.9
20180623074029 62 222 0.0 0.0 0.00 0.00 0.00 86 1009.9
20180623073526 62 222 0.0 0.0 0.00 0.00 0.00 88 1009.9
20180623073027 62 222 0.0 0.0 0.00 0.00 0.00 89 1010.0
20180623072527 62 222 0.0 0.0 0.00 0.00 0.00 88 1010.0
20180623072028 62 222 0.0 0.0 0.00 0.00 0.00 88 1010.0
20180623071528 62 222 0.0 0.0 0.00 0.00 0.00 87 1010.1
20180623071027 62 222 0.0 0.0 0.00 0.00 0.00 87 1010.0
20180623070528 62 222 0.0 0.0 0.00 0.00 0.00 87 1010.1
20180623070024 62 222 0.0 0.0 0.00 0.00 0.00 87 1010.1
20180623065521 63 222 0.0 0.0 0.00 0.00 0.00 86 1010.1
20180623065023 63 222 0.0 0.0 0.00 0.00 0.00 86 1010.1
20180623064519 63 222 0.0 0.0 0.00 0.00 0.00 85 1010.0
20180623064019 63 222 0.0 0.0 0.00 0.00 0.00 85 1010.0
20180623063521 63 222 0.0 0.0 0.00 0.00 0.00 85 1010.1
20180623063021 64 222 0.0 0.0 0.00 0.00 0.00 84 1010.2
20180623062518 64 222 0.0 0.0 0.00 0.00 0.00 84 1010.1
20180623062020 64 222 0.0 0.0 0.00 0.00 0.00 84 1010.2
20180623061518 64 222 0.0 0.0 0.00 0.00 0.00 84 1010.3
20180623061019 64 222 0.0 0.0 0.00 0.00 0.00 84 1010.3
20180623060518 65 222 0.0 0.0 0.00 0.00 0.00 83 1010.3
20180623060017 65 222 0.0 0.0 0.00 0.00 0.00 82 1010.3
20180623055517 65 222 0.0 0.0 0.00 0.00 0.00 82 1010.3
20180623055018 65 222 0.0 0.0 0.00 0.00 0.00 82 1010.3
20180623054518 65 222 0.0 0.0 0.00 0.00 0.00 82 1010.3
20180623054019 66 222 0.0 0.0 0.00 0.00 0.00 81 1010.3
20180623053518 66 222 0.0 0.0 0.00 0.00 0.00 81 1010.4
20180623053019 66 222 0.0 0.0 0.00 0.00 0.00 80 1010.4
20180623052517 66 222 0.0 0.0 0.00 0.00 0.00 80 1010.4
20180623052019 66 222 0.0 0.0 0.00 0.00 0.00 79 1010.4
20180623051518 67 222 0.0 0.0 0.00 0.00 0.00 79 1010.4
20180623051019 67 222 0.0 0.0 0.00 0.00 0.00 78 1010.4
20180623050517 67 222 0.0 0.0 0.00 0.00 0.00 77 1010.4
20180623050018 67 222 0.0 0.0 0.00 0.00 0.00 77 1010.3
20180623045518 68 222 0.0 0.0 0.00 0.00 0.00 76 1010.3
20180623045019 68 222 0.0 0.0 0.00 0.00 0.00 75 1010.3
20180623044515 68 222 0.0 0.0 0.00 0.00 0.00 75 1010.3
20180623044017 69 222 0.0 0.0 0.00 0.00 0.00 73 1010.2
20180623043517 69 222 0.0 0.0 0.00 0.00 0.00 73 1010.2
20180623043016 69 222 0.0 0.0 0.00 0.00 0.00 72 1010.1
20180623042516 70 222 0.0 0.0 0.00 0.00 0.00 71 1010.1
20180623042015 70 222 0.0 0.0 0.00 0.00 0.00 71 1010.0
20180623041517 70 222 0.0 1.0 0.00 0.00 0.00 70 1009.9
20180623041017 71 248 0.0 1.0 0.00 0.00 0.00 69 1009.9
20180623040516 71 256 0.0 3.0 0.00 0.00 0.00 68 1009.9
20180623040014 71 261 0.0 3.0 0.00 0.00 0.00 68 1009.9
20180623035515 72 252 0.0 2.0 0.00 0.00 0.00 68 1009.9
20180623035013 72 254 0.0 3.0 0.00 0.00 0.00 67 1009.8
20180623034513 73 253 0.0 3.0 0.00 0.00 0.00 66 1009.7
20180623034012 73 244 0.0 2.0 0.00 0.00 0.00 66 1009.7